User: anonymous   Login
Location: UBC Liquid-Mirror Observatory
(49.2876°N, 122.5728°W)
Time: 05:51:38
(UTC-07:00)
Language:

Cosmos 1743 Rocket - Orbit

View from above orbital plane
View from above orbital plane
View from above satellite
View from above satellite

Ground track
Ground track

The orbit data is extracted from the following two-line orbital elements,

1 16720U 86034B   15186.10202735  .00000219  00000-0  23918-4 0  9997
2 16720 082.5529 186.2266 0018822 295.8777 127.8192 14.83097992573564
Epoch (UTC): 05 July 2015 02:26:55
Eccentricity: 0.0018822
inclination: 82.5529°
perigee height: 606 km
apogee height: 633 km
right ascension of ascending node: 186.2266°
argument of perigee: 295.8777°
revolutions per day: 14.83097992
mean anomaly at epoch: 127.8192°
orbit number at epoch: 57356

The dashed part of the orbit path shows where the satellite is in the earth's shadow,  

DLR